Regional Weather Roundup
Issued by NWS Newport/Morehead, NC

Current Version | Previous Version | Graphics & Text | Print | Product List | Glossary Off
Versions: 1 2 3 4 5 6 7 8 9 10 11 12 13 14 15 16 17 18 19 20 21 22 23 24 25 26 27 28 29 30 31 32 33 34 35 36 37 38 39 40 41 42 43 44 45 46 47 48 49 50

000
ASUS42 KMHX 291825
RWRMHX
WEATHER ROUNDUP FOR EASTERN NORTH CAROLINA
NATIONAL WEATHER SERVICE NEWPORT/MOREHEAD CITY NC
200 PM EDT SUN MAY 29 2016

NOTE: "FAIR" INDICATES FEW OR NO CLOUDS BELOW 12,000 FEET
WITH NO SIGNIFICANT WEATHER AND/OR OBSTRUCTIONS TO VISIBILITY

NCZ015>017-031-032-045>047-102-103-291900-
NORTH COAST

CITY           SKY/WX    TMP DP  RH WIND       PRES   REMARKS
EDENTON        RAIN     N/A N/A N/A S7        30.11S
ELIZABETH CITY LGT RAIN  76  73  91 SE7       30.10F
KITTY HAWK     MOCLDY    82  71  68 SE13G18   30.08F
MANTEO         NOT AVBL

$$

NCZ045>047-081-094-103-104-291900-
CENTRAL COAST

CITY           SKY/WX    TMP DP  RH WIND       PRES   REMARKS
FRISCO         MOSUNNY   85  74  69 S12       30.10F

$$

NCZ095-097-098-100-101-291900-
SOUTHERN COAST

CITY           SKY/WX    TMP DP  RH WIND       PRES   REMARKS
BEAUFORT       PTSUNNY   82  74  76 SE14G21   30.07F
CEDAR ISLAND   NOT AVBL
JACKSONVILLE   MOSUNNY   83  71  67 S20       30.04F
PINEY ISLAND   PTCLDY   N/A N/A N/A S18G29    30.08
WILMINGTON     PTSUNNY   81  73  76 SE20G28   30.03F


$$

NCZ011>013-027>030-043-044-078>080-089-090>093-098-291900-
COASTAL PLAIN

CITY           SKY/WX    TMP DP  RH WIND       PRES   REMARKS
AHOSKIE        HVY RAIN  73  72  95 SE7       30.08F
CLINTON        MOSUNNY   85  74  67 SE6       30.01F
ELIZABETHTOWN  LGT RAIN  78  74  90 SE7       29.99F
GOLDSBORO      MOSUNNY   82  80  96 E10       30.02F
GREENVILLE     LGT RAIN  77  77 100 E7        30.07F
HAVELOCK       PTSUNNY   83  72  69 S14G26    30.08S
KENANSVILLE    PTSUNNY   82  69  66 S3        30.03F HAZE
KINSTON        SUNNY     82  73  74 E5        30.05F
NEW BERN       MOSUNNY   85  69  58 S14G23    30.07S
RICHLANDS      PTSUNNY   83  73  72 SE9       30.04F
ROCKY MOUNT    CLOUDY    77  73  87 VRB5      30.06F
WASHINGTON     CLOUDY    74  69  83 N3        30.07S
WHITEVILLE     MOSUNNY   82  71  69 SE7G17    29.97F

$$

AMZ130-135-150-152-154-156-158-170-250-252-270-ANZ085-086-088-633-658-670-291900-
MARINE OBSERVATIONS

STATION/POSITION TIME  TEMP    WIND        PRES    WAVE   SWELL
                       AIR SEA DIR/SP/G            HT/PER HT/PER
                 (UTC) (F)     (DEG/KT/KT) (MB)    (FT/S) (FT/S)
CHESAPEAKE LIGHT 1800   72     130/ 14/ 15 1019.8
64 E VA BEACH    1750   69 66  160/ 10/ 10 1019.8    4/ 8   3/ 8
DUCK             1800   73 59  120/ 16/ 17 1018.3
2 E DUCK         1711      68                N/A     3/ 5
OREGON INLET     1800   81 74  130/ 12/ 21 1019.1
13E OREGON INLT  1800      70                N/A     4/ 8   3/ 8
HATTERAS CG      1800   78 76  160/ 11/ 13 1018.7
DIAMOND BUOY     1750   79 76  160/ 17/ 19 1018.7    6/ 8   2/16
CAPE LOOKOUT     1800   77     150/ 13/ 14 1018.1
BEAUFORT LAB     1800   79 75  160/ 10/ 15 1017.6
30 SE NEW RVR IN 1725      75                N/A     7/ 8
27 SE WRIGHTSVLE 1808   79 76  140/ 16/ 21 1016.6
5 SE WRIGHTSVLE  1808   78 75  140/ 12/ 17 1017.1
225 S CAPE HAT   1750   76 76  130/ 14/ 16 1019.4    4/ 8   2/ 8
41 SE CHARLESTON 1750   74 78  180/ 17/ 19 1013.3    6/ 8

$$




USA.gov is the U.S. government's official web portal to all federal, state and local government web resources and services.